Simultaneous Nadir Overpasses (SNOs) Predictions

Prediction of SNOs between NOAA-19 and TERRA Satellite Orbit:

Table of predicted SNOs for the next 14.0 days since TLE Epoch: 12/19/2011
Index Date Time (NOAA-19) NOAA-19 Lat,Lon TERRA Lat,Lon Distance(km) Time Diff (sec)
1 12/21/2011 00:08:04 71.39, 173.39 71.33,-179.52 252.12 49
2 12/21/2011 00:58:12 -68.88, -15.36 -68.90, -15.39 3.06 53
3 12/21/2011 01:49:19 68.74, 152.04 68.74, 152.05 0.86 46
4 12/21/2011 02:39:34 -66.54, -37.96 -66.55, -42.82 214.95 54
5 12/23/2011 04:52:32 70.11, 104.33 70.00, 107.38 116.40 64
6 12/23/2011 05:43:04 -68.84, -86.54 -68.83, -86.55 1.08 21
7 12/23/2011 06:34:07 68.49, 81.15 68.56, 80.75 18.32 72
8 12/23/2011 07:23:57 -64.93,-107.47 -64.95,-115.46 376.11 30
9 12/25/2011 08:47:16 -73.22,-139.96 -73.21,-125.89 450.99 14
10 12/25/2011 09:37:03 68.97, 34.80 68.98, 34.92 5.06 70
11 12/25/2011 10:27:56 -68.81,-157.71 -68.82,-157.66 2.38 12
12 12/25/2011 11:18:38 67.33, 11.41 67.36, 8.26 134.73 63
13 12/27/2011 13:31:34 -71.47, 152.37 -71.42, 159.75 261.17 48
14 12/27/2011 14:21:54 68.90, -36.32 68.89, -36.27 2.07 39
15 12/27/2011 15:12:47 -68.73, 131.18 -68.73, 131.16 0.88 43
16 12/27/2011 16:03:04 65.90, -58.18 65.97, -64.28 276.59 46
17 12/29/2011 18:16:02 -70.21, 83.31 -70.07, 86.61 125.61 63
18 12/29/2011 19:06:45 68.82,-107.44 68.80,-107.46 2.81 8
19 12/29/2011 19:57:37 -68.59, 60.14 -68.64, 59.97 8.66 73
20 12/31/2011
